Location: Newark
(42.7133°N, 87.7910°W)
Time: 11:34:03
(UTC+00:00)

Tiros 1 - Pass Details

Date: 24 September 2019
Orbit: 630 x 664 km, 48.4° (Epoch: 15 October)

Event Time Altitude Azimuth Distance (km) Brightness Sun altitude
Rises 17:18:15 0° 235° (SW) 2,975 10.8 46.4°
Reaches altitude 10° 17:20:36 10° 233° (SW) 2,062 10.2 46.4°
Maximum altitude 17:25:21 72° 149° (SSE) 688 8.7 46.5°
Drops below altitude 10° 17:30:03 10° 66° (ENE) 2,049 9.7 46.6°
Sets 17:32:23 0° 65° (ENE) 2,955 10.4 46.7°
